BAW606 OMDB-WSSS

Flight info

Callsign BAW606
Flight time N/A
Altitude 35000
Route OMDB/30R N0500F350 IVUR1F IVURO M677 LALDO B505 NADSO A777 VAXIM P307 PARAR N571 DORAM/N0495F370 N571 GUNIP M630 NIREN Y511 TOPOR A464 ARAMA DCT TEBUN TEBU1B WSSS/20R
Aircraft A349/H-V/N

Departure

Time 2026-05-07 06:21
Airport Dubai International Airport (OMDB)

Arrival

Time N/A
Airport Singapore Changi Airport (WSSS)
Time Latitude Longitude Altitude Speed Heading
2026-05-07 05:52 25.24880 55.36296 36 ft 0 kts 211°
2026-05-07 05:53 25.24921 55.36222 36 ft 0 kts 211°
2026-05-07 06:09 25.24923 55.36223 36 ft 1 kts 211°
2026-05-07 06:09 25.24936 55.36232 36 ft 2 kts 211°
2026-05-07 06:09 25.24948 55.36240 36 ft 0 kts 211°
2026-05-07 06:10 25.24960 55.36247 36 ft 2 kts 203°
2026-05-07 06:10 25.24977 55.36252 36 ft 2 kts 183°
2026-05-07 06:10 25.24995 55.36251 36 ft 2 kts 167°
2026-05-07 06:10 25.25011 55.36245 37 ft 2 kts 152°
2026-05-07 06:11 25.25025 55.36234 38 ft 2 kts 136°
2026-05-07 06:11 25.25035 55.36221 39 ft 0 kts 122°
2026-05-07 06:11 25.25036 55.36219 39 ft 0 kts 121°
2026-05-07 06:13 25.25023 55.36242 38 ft 6 kts 121°
2026-05-07 06:13 25.24994 55.36295 36 ft 10 kts 121°
2026-05-07 06:13 25.24949 55.36376 36 ft 12 kts 121°
2026-05-07 06:14 25.24900 55.36462 39 ft 11 kts 122°
2026-05-07 06:14 25.24857 55.36536 42 ft 10 kts 120°
2026-05-07 06:14 25.24828 55.36597 46 ft 7 kts 115°
2026-05-07 06:14 25.24795 55.36689 50 ft 18 kts 105°
2026-05-07 06:15 25.24755 55.36837 46 ft 20 kts 115°
2026-05-07 06:15 25.24690 55.36974 51 ft 18 kts 119°
2026-05-07 06:15 25.24617 55.37098 52 ft 18 kts 124°
2026-05-07 06:15 25.24546 55.37219 55 ft 16 kts 121°
2026-05-07 06:16 25.24486 55.37326 59 ft 14 kts 121°
2026-05-07 06:16 25.24424 55.37439 56 ft 18 kts 121°
2026-05-07 06:16 25.24349 55.37570 52 ft 20 kts 122°
2026-05-07 06:16 25.24278 55.37697 52 ft 18 kts 120°
2026-05-07 06:17 25.24220 55.37807 55 ft 14 kts 118°
2026-05-07 06:17 25.24208 55.37898 59 ft 11 kts 80°
2026-05-07 06:17 25.24218 55.37978 61 ft 10 kts 82°
2026-05-07 06:17 25.24237 55.38060 62 ft 11 kts 50°
2026-05-07 06:18 25.24307 55.38118 61 ft 13 kts 34°
2026-05-07 06:18 25.24406 55.38183 61 ft 15 kts 30°
2026-05-07 06:18 25.24510 55.38251 62 ft 13 kts 31°
2026-05-07 06:18 25.24529 55.38264 63 ft 0 kts 31°
2026-05-07 06:19 25.24571 55.38292 63 ft 10 kts 30°
2026-05-07 06:19 25.24662 55.38276 61 ft 15 kts 312°
2026-05-07 06:20 25.24730 55.38167 61 ft 16 kts 300°
2026-05-07 06:20 25.24764 55.38103 61 ft 17 kts 300°
2026-05-07 06:20 25.24833 55.37973 60 ft 18 kts 300°
2026-05-07 06:20 25.25001 55.37672 58 ft 69 kts 301°
2026-05-07 06:21 25.25362 55.36953 54 ft 124 kts 303°
2026-05-07 06:21 25.25968 55.35936 45 ft 164 kts 296°
2026-05-07 06:21 25.26695 55.34636 131 ft 201 kts 300°
2026-05-07 06:21 25.27794 55.33702 699 ft 200 kts 337°
2026-05-07 06:22 25.29048 55.33015 1233 ft 195 kts 312°
2026-05-07 06:22 25.29882 55.30371 2117 ft 194 kts 283°
2026-05-07 06:22 25.30701 55.29180 2248 ft 207 kts 330°
2026-05-07 06:23 25.32140 55.28929 2379 ft 216 kts
2026-05-07 06:23 25.33672 55.29178 2538 ft 225 kts
2026-05-07 06:23 25.35254 55.29414 2704 ft 234 kts
2026-05-07 06:23 25.36901 55.29567 2850 ft 246 kts
2026-05-07 06:24 25.38679 55.29671 3155 ft 257 kts
2026-05-07 06:24 25.40311 55.30312 3824 ft 253 kts 39°
2026-05-07 06:24 25.41506 55.31781 4234 ft 262 kts 52°
2026-05-07 06:24 25.42623 55.33416 4502 ft 277 kts 52°
2026-05-07 06:25 25.43813 55.35128 4939 ft 283 kts 51°
2026-05-07 06:25 25.45035 55.36841 5525 ft 284 kts 50°
2026-05-07 06:25 25.46273 55.38548 6120 ft 284 kts 50°
2026-05-07 06:25 25.47501 55.40228 6700 ft 284 kts 50°
2026-05-07 06:26 25.48749 55.41937 7299 ft 284 kts 51°
2026-05-07 06:26 25.49959 55.43655 7888 ft 284 kts 52°
2026-05-07 06:26 25.51154 55.45377 8478 ft 284 kts 53°
2026-05-07 06:26 25.52332 55.47120 9060 ft 285 kts 59°
2026-05-07 06:27 25.52992 55.49167 9513 ft 286 kts 86°
2026-05-07 06:27 25.52769 55.51331 10044 ft 288 kts 109°
2026-05-07 06:27 25.51819 55.53289 10351 ft 299 kts 121°
2026-05-07 06:27 25.50642 55.55283 10589 ft 313 kts 121°
2026-05-07 06:28 25.49444 55.57338 10843 ft 324 kts 121°
2026-05-07 06:28 25.48225 55.59454 11300 ft 328 kts 121°
2026-05-07 06:28 25.47004 55.61584 11880 ft 328 kts 121°
2026-05-07 06:28 25.45795 55.63701 12444 ft 329 kts 121°
2026-05-07 06:29 25.44577 55.65833 12999 ft 330 kts 121°
2026-05-07 06:29 25.43407 55.68066 13334 ft 339 kts 116°
2026-05-07 06:29 25.42458 55.70509 13562 ft 352 kts 109°
2026-05-07 06:29 25.41761 55.73135 13789 ft 365 kts 104°
2026-05-07 06:30 25.41167 55.75921 14019 ft 379 kts 103°
2026-05-07 06:30 25.40575 55.78770 14319 ft 389 kts 103°
2026-05-07 06:30 25.39963 55.81688 14827 ft 393 kts 104°
2026-05-07 06:30 25.39335 55.84663 15346 ft 396 kts 104°
2026-05-07 06:31 25.38699 55.87651 15818 ft 401 kts 104°
2026-05-07 06:31 25.38064 55.90624 16291 ft 406 kts 104°
2026-05-07 06:31 25.37412 55.93671 16750 ft 410 kts 104°
2026-05-07 06:31 25.36748 55.96766 17206 ft 415 kts 104°
2026-05-07 06:32 25.36077 55.99891 17643 ft 420 kts 104°
2026-05-07 06:32 25.35402 56.03040 18101 ft 423 kts 104°
2026-05-07 06:32 25.34721 56.06213 18571 ft 427 kts 104°
2026-05-07 06:32 25.34039 56.09387 19015 ft 431 kts 104°
2026-05-07 06:33 25.33360 56.12600 19435 ft 435 kts 103°
2026-05-07 06:33 25.32796 56.15918 19861 ft 438 kts 99°
2026-05-07 06:33 25.32405 56.19265 20326 ft 442 kts 96°
2026-05-07 06:33 25.32120 56.22612 20725 ft 445 kts 95°
2026-05-07 06:34 25.31847 56.26019 21154 ft 448 kts 95°
2026-05-07 06:34 25.31574 56.29451 21550 ft 452 kts 95°
2026-05-07 06:34 25.31290 56.32928 21956 ft 455 kts 95°
2026-05-07 06:34 25.31002 56.36395 22352 ft 458 kts 95°
2026-05-07 06:35 25.30747 56.39909 22734 ft 462 kts 93°
2026-05-07 06:35 25.30617 56.43458 23113 ft 465 kts 92°
2026-05-07 06:35 25.30514 56.47048 23469 ft 469 kts 92°
2026-05-07 06:35 25.30414 56.50651 23820 ft 473 kts 92°
2026-05-07 06:36 25.30309 56.54297 24148 ft 477 kts 92°
2026-05-07 06:36 25.30013 56.57951 24459 ft 480 kts 99°
2026-05-07 06:36 25.29326 56.61548 24785 ft 483 kts 106°
2026-05-07 06:36 25.28258 56.65051 25113 ft 485 kts 112°
2026-05-07 06:37 25.26964 56.68517 25434 ft 488 kts 114°
2026-05-07 06:37 25.25639 56.71959 25737 ft 492 kts 114°
2026-05-07 06:37 25.24298 56.75428 26054 ft 495 kts 114°
2026-05-07 06:37 25.22953 56.78924 26368 ft 498 kts 114°
2026-05-07 06:38 25.21596 56.82468 26664 ft 501 kts 114°
2026-05-07 06:38 25.20243 56.86010 26967 ft 504 kts 114°
2026-05-07 06:38 25.18882 56.89578 27263 ft 507 kts 114°
2026-05-07 06:38 25.17516 56.93162 27555 ft 509 kts 114°
2026-05-07 06:39 25.16149 56.96749 27852 ft 512 kts 114°
2026-05-07 06:39 25.14772 57.00360 28134 ft 515 kts 114°
2026-05-07 06:39 25.13382 57.04003 28398 ft 518 kts 114°
2026-05-07 06:39 25.11977 57.07680 28658 ft 521 kts 114°
2026-05-07 06:40 25.10577 57.11342 28929 ft 524 kts 114°
2026-05-07 06:40 25.09158 57.15055 29231 ft 525 kts 114°
2026-05-07 06:40 25.07737 57.18770 29621 ft 524 kts 114°
2026-05-07 06:40 25.06330 57.22444 30036 ft 522 kts 114°
2026-05-07 06:41 25.04923 57.26116 30445 ft 520 kts 114°
2026-05-07 06:41 25.03524 57.29762 30815 ft 519 kts 114°
2026-05-07 06:41 25.02112 57.33439 31161 ft 519 kts 114°
2026-05-07 06:41 25.00720 57.37060 31498 ft 519 kts 115°
2026-05-07 06:42 24.99318 57.40702 31837 ft 518 kts 115°
2026-05-07 06:42 24.97899 57.44388 32169 ft 518 kts 115°
2026-05-07 06:42 24.96506 57.48000 32490 ft 517 kts 115°
2026-05-07 06:42 24.95097 57.51654 32826 ft 517 kts 115°
2026-05-07 06:43 24.93708 57.55258 33162 ft 517 kts 115°
2026-05-07 06:43 24.92309 57.58882 33483 ft 517 kts 115°
2026-05-07 06:43 24.90900 57.62528 33780 ft 518 kts 115°
2026-05-07 06:43 24.89482 57.66193 34049 ft 518 kts 115°
2026-05-07 06:44 24.88072 57.69837 34298 ft 519 kts 115°
2026-05-07 06:44 24.86670 57.73459 34525 ft 520 kts 115°
2026-05-07 06:44 24.85243 57.77142 34744 ft 521 kts 115°
2026-05-07 06:44 24.83831 57.80777 34822 ft 523 kts 115°
2026-05-07 06:45 24.80752 57.88020 34827 ft 522 kts 118°
2026-05-07 06:45 24.77607 57.95193 34830 ft 523 kts 118°
2026-05-07 06:46 24.74456 58.02391 34830 ft 522 kts 118°
2026-05-07 06:46 24.71315 58.09565 34830 ft 522 kts 118°
2026-05-07 06:47 24.68186 58.16706 34829 ft 522 kts 117°
2026-05-07 06:47 24.65039 58.23878 34825 ft 522 kts 117°
2026-05-07 06:48 24.62815 58.28937 34822 ft 522 kts 117°
2026-05-07 06:48 24.59659 58.36113 34819 ft 522 kts 117°
2026-05-07 06:49 24.56517 58.43243 34816 ft 521 kts 117°
2026-05-07 06:49 24.53361 58.50394 34816 ft 522 kts 117°
2026-05-07 06:50 24.50196 58.57556 34817 ft 521 kts 117°
2026-05-07 06:50 24.47040 58.64692 34818 ft 521 kts 117°
2026-05-07 06:51 24.43882 58.71827 34819 ft 521 kts 117°
2026-05-07 06:51 24.40718 58.78944 34821 ft 521 kts 118°
2026-05-07 06:52 24.37531 58.86087 34821 ft 521 kts 117°
2026-05-07 06:52 24.34362 58.93195 34820 ft 521 kts 117°
2026-05-07 06:53 24.31180 59.00327 34821 ft 521 kts 117°
2026-05-07 06:53 24.28006 59.07435 34823 ft 521 kts 117°
2026-05-07 06:54 24.24836 59.14523 34823 ft 521 kts 117°
2026-05-07 06:54 24.21647 59.21647 34824 ft 520 kts 117°
2026-05-07 06:55 24.18469 59.28736 34826 ft 520 kts 117°
2026-05-07 06:55 24.15276 59.35852 34826 ft 521 kts 117°
2026-05-07 06:56 24.12104 59.42916 34825 ft 521 kts 117°
2026-05-07 06:56 24.08917 59.49995 34825 ft 520 kts 117°
2026-05-07 06:57 24.05706 59.57079 34826 ft 521 kts 117°
2026-05-07 06:57 24.02478 59.64199 34826 ft 521 kts 117°
2026-05-07 06:58 23.99267 59.71282 34828 ft 521 kts 117°
2026-05-07 06:58 23.96073 59.78324 34828 ft 521 kts 117°
2026-05-07 06:59 23.92865 59.85388 34827 ft 520 kts 117°
2026-05-07 06:59 23.89635 59.92487 34828 ft 520 kts 117°
2026-05-07 07:00 23.86432 59.99519 34828 ft 520 kts 117°
2026-05-07 07:00 23.83219 60.06564 34829 ft 520 kts 117°
2026-05-07 07:01 23.79992 60.13629 34828 ft 520 kts 117°
2026-05-07 07:01 23.76786 60.20637 34829 ft 521 kts 117°
2026-05-07 07:02 23.73546 60.27709 34826 ft 521 kts 117°
2026-05-07 07:02 23.70316 60.34751 34821 ft 521 kts 117°
2026-05-07 07:03 23.67064 60.41828 34819 ft 520 kts 117°
2026-05-07 07:03 23.63822 60.48869 34824 ft 520 kts 117°
2026-05-07 07:04 23.60596 60.55870 34822 ft 520 kts 117°
2026-05-07 07:04 23.57349 60.62905 34821 ft 520 kts 117°
2026-05-07 07:05 23.54111 60.69913 34822 ft 519 kts 117°
2026-05-07 07:05 23.50870 60.76917 34823 ft 519 kts 117°
2026-05-07 07:06 23.47624 60.83920 34819 ft 519 kts 117°
2026-05-07 07:06 23.44374 60.90921 34820 ft 519 kts 117°
2026-05-07 07:07 23.41117 60.97932 34819 ft 520 kts 117°
2026-05-07 07:07 23.37852 61.04957 34820 ft 520 kts 117°
2026-05-07 07:08 23.34604 61.11938 34821 ft 520 kts 117°
2026-05-07 07:08 23.31342 61.18933 34819 ft 520 kts 117°
2026-05-07 07:09 23.28173 61.25994 34820 ft 520 kts 116°
2026-05-07 07:09 23.25058 61.33033 34823 ft 519 kts 116°
2026-05-07 07:10 23.21932 61.40073 34823 ft 519 kts 116°
2026-05-07 07:10 23.18790 61.47128 34827 ft 519 kts 116°
2026-05-07 07:11 23.15660 61.54142 34828 ft 519 kts 116°
2026-05-07 07:11 23.12502 61.61211 34834 ft 519 kts 116°
2026-05-07 07:12 23.09349 61.68267 34834 ft 519 kts 117°
2026-05-07 07:12 23.06208 61.75270 34839 ft 519 kts 117°
2026-05-07 07:13 23.03042 61.82284 34839 ft 519 kts 117°
2026-05-07 07:13 22.99874 61.89308 34843 ft 519 kts 117°
2026-05-07 07:14 22.96697 61.96354 34847 ft 519 kts 116°
2026-05-07 07:14 22.93535 62.03360 34846 ft 519 kts 116°
2026-05-07 07:15 22.90365 62.10378 34848 ft 519 kts 116°
2026-05-07 07:15 22.87203 62.17368 34848 ft 518 kts 116°
2026-05-07 07:16 22.84025 62.24382 34849 ft 518 kts 116°
2026-05-07 07:16 22.80863 62.31349 34852 ft 518 kts 116°
2026-05-07 07:17 22.77679 62.38358 34852 ft 518 kts 116°
2026-05-07 07:17 22.74514 62.45316 34852 ft 518 kts 116°
2026-05-07 07:18 22.71330 62.52302 34852 ft 517 kts 116°
2026-05-07 07:18 22.68145 62.59282 34846 ft 517 kts 116°
2026-05-07 07:19 22.64963 62.66249 34839 ft 517 kts 117°
2026-05-07 07:19 22.61780 62.73208 34842 ft 517 kts 117°
2026-05-07 07:20 22.58592 62.80168 34843 ft 517 kts 117°
2026-05-07 07:20 22.55416 62.87092 34845 ft 517 kts 117°
2026-05-07 07:21 22.52211 62.94073 34845 ft 517 kts 117°
2026-05-07 07:21 22.49024 63.01011 34845 ft 517 kts 117°
2026-05-07 07:22 22.45833 63.07950 34850 ft 516 kts 117°
2026-05-07 07:22 22.42665 63.14864 34849 ft 516 kts 116°
2026-05-07 07:23 22.39531 63.21856 34852 ft 516 kts 116°
2026-05-07 07:23 22.36428 63.28797 34851 ft 516 kts 116°
2026-05-07 07:24 22.33301 63.35781 34853 ft 516 kts 116°
2026-05-07 07:24 22.30180 63.42739 34852 ft 516 kts 116°
2026-05-07 07:25 22.25499 63.53153 34858 ft 516 kts 116°
2026-05-07 07:26 22.22363 63.60117 34861 ft 516 kts 116°
2026-05-07 07:26 22.19244 63.67033 34862 ft 516 kts 116°
2026-05-07 07:27 22.16110 63.73974 34862 ft 517 kts 116°
2026-05-07 07:27 22.12962 63.80933 34865 ft 515 kts 116°
2026-05-07 07:28 22.09822 63.87867 34868 ft 514 kts 116°
2026-05-07 07:28 22.06685 63.94789 34860 ft 515 kts 116°
2026-05-07 07:29 22.03556 64.01681 34851 ft 515 kts 116°
2026-05-07 07:29 22.00413 64.08590 34848 ft 515 kts 116°
2026-05-07 07:30 21.97260 64.15514 34852 ft 515 kts 116°
2026-05-07 07:30 21.94108 64.22429 34853 ft 515 kts 116°
2026-05-07 07:31 21.90947 64.29356 34857 ft 515 kts 116°
2026-05-07 07:31 21.87799 64.36239 34864 ft 514 kts 116°
2026-05-07 07:32 21.84656 64.43107 34869 ft 513 kts 116°
2026-05-07 07:32 21.81493 64.50009 34872 ft 513 kts 116°
2026-05-07 07:33 21.78339 64.56880 34872 ft 514 kts 116°
2026-05-07 07:33 21.75201 64.63710 34873 ft 513 kts 116°
2026-05-07 07:34 21.72041 64.70575 34875 ft 513 kts 116°
2026-05-07 07:34 21.68877 64.77443 34876 ft 513 kts 116°
2026-05-07 07:35 21.65714 64.84295 34878 ft 513 kts 116°
2026-05-07 07:35 21.62534 64.91177 34873 ft 513 kts 116°
2026-05-07 07:36 21.59388 64.97977 34871 ft 513 kts 116°
2026-05-07 07:36 21.56204 65.04851 34868 ft 512 kts 116°
2026-05-07 07:37 21.53050 65.11651 34869 ft 512 kts 116°
2026-05-07 07:37 21.49879 65.18479 34868 ft 512 kts 116°
2026-05-07 07:38 21.46692 65.25330 34869 ft 512 kts 116°
2026-05-07 07:38 21.43522 65.32138 34869 ft 512 kts 116°
2026-05-07 07:39 21.40343 65.38957 34867 ft 512 kts 116°
2026-05-07 07:39 21.37155 65.45785 34868 ft 511 kts 116°
2026-05-07 07:40 21.33982 65.52575 34869 ft 511 kts 116°
2026-05-07 07:40 21.30809 65.59354 34867 ft 511 kts 116°
2026-05-07 07:41 21.27621 65.66157 34867 ft 511 kts 117°
2026-05-07 07:41 21.24442 65.72933 34866 ft 511 kts 117°
2026-05-07 07:42 21.21237 65.79759 34867 ft 511 kts 117°
2026-05-07 07:42 21.18051 65.86539 34864 ft 511 kts 117°
2026-05-07 07:43 21.14878 65.93292 34864 ft 510 kts 117°
2026-05-07 07:43 21.11681 66.00076 34864 ft 510 kts 117°
2026-05-07 07:44 21.08560 66.06865 34864 ft 511 kts 116°
2026-05-07 07:44 21.05460 66.13696 34868 ft 510 kts 116°
2026-05-07 07:45 21.02358 66.20525 34870 ft 510 kts 116°
2026-05-07 07:45 20.99257 66.27338 34874 ft 510 kts 116°
2026-05-07 07:46 20.96151 66.34149 34877 ft 510 kts 116°
2026-05-07 07:46 20.93019 66.41009 34879 ft 510 kts 116°
2026-05-07 07:47 20.89897 66.47836 34877 ft 510 kts 116°
2026-05-07 07:47 20.87104 66.53938 34875 ft 510 kts 116°
2026-05-07 07:48 20.83995 66.60722 34876 ft 510 kts 116°
2026-05-07 07:48 20.80878 66.67514 34875 ft 510 kts 116°
2026-05-07 07:49 20.77758 66.74303 34875 ft 510 kts 116°
2026-05-07 07:49 20.74634 66.81095 34873 ft 510 kts 116°
2026-05-07 07:50 20.71501 66.87896 34870 ft 510 kts 116°
2026-05-07 07:50 20.68375 66.94672 34870 ft 510 kts 116°
2026-05-07 07:51 20.65240 67.01461 34870 ft 510 kts 116°
2026-05-07 07:51 20.62105 67.08238 34870 ft 510 kts 116°
2026-05-07 07:52 20.59496 67.13876 34869 ft 510 kts 116°
2026-05-07 07:52 20.56364 67.20633 34868 ft 510 kts 116°
2026-05-07 07:53 20.53222 67.27403 34868 ft 510 kts 116°
2026-05-07 07:53 20.50072 67.34182 34869 ft 511 kts 116°
2026-05-07 07:54 20.46926 67.40946 34869 ft 511 kts 116°
2026-05-07 07:54 20.43758 67.47747 34869 ft 511 kts 116°
2026-05-07 07:55 20.40603 67.54511 34871 ft 510 kts 116°
2026-05-07 07:55 20.37451 67.61262 34868 ft 510 kts 116°
2026-05-07 07:56 20.34287 67.68031 34869 ft 511 kts 117°
2026-05-07 07:56 20.31121 67.74792 34868 ft 510 kts 117°
2026-05-07 07:57 20.27971 67.81514 34871 ft 511 kts 117°
2026-05-07 07:57 20.24786 67.88300 34872 ft 511 kts 117°
2026-05-07 07:58 20.21619 67.95042 34870 ft 511 kts 117°
2026-05-07 07:58 20.18437 68.01806 34866 ft 511 kts 117°
2026-05-07 07:59 20.15267 68.08536 34865 ft 511 kts 117°
2026-05-07 07:59 20.12087 68.15282 34865 ft 511 kts 117°
2026-05-07 08:00 20.08917 68.21997 34863 ft 511 kts 117°
2026-05-07 08:00 20.05729 68.28740 34856 ft 511 kts 117°
2026-05-07 08:01 20.02538 68.35483 34851 ft 512 kts 117°
2026-05-07 08:01 19.99344 68.42225 34849 ft 512 kts 117°
2026-05-07 08:02 19.96144 68.48970 34849 ft 512 kts 117°
2026-05-07 08:02 19.92934 68.55730 34851 ft 511 kts 117°
2026-05-07 08:03 19.89744 68.62439 34847 ft 511 kts 117°
2026-05-07 08:03 19.86537 68.69175 34845 ft 512 kts 117°
2026-05-07 08:04 19.83329 68.75907 34849 ft 511 kts 117°
2026-05-07 08:04 19.80118 68.82636 34849 ft 512 kts 117°
2026-05-07 08:05 19.76886 68.89402 34856 ft 512 kts 117°
2026-05-07 08:05 19.73667 68.96134 34853 ft 513 kts 117°
2026-05-07 08:06 19.70455 69.02845 34852 ft 513 kts 117°
2026-05-07 08:06 19.67217 69.09602 34856 ft 512 kts 117°
2026-05-07 08:07 19.63988 69.16335 34856 ft 512 kts 117°
2026-05-07 08:07 19.60766 69.23049 34862 ft 512 kts 117°
2026-05-07 08:08 19.57548 69.29755 34865 ft 511 kts 117°
2026-05-07 08:08 19.54316 69.36494 34866 ft 511 kts 116°
2026-05-07 08:09 19.51199 69.43263 34871 ft 512 kts 116°
2026-05-07 08:09 19.48102 69.50050 34867 ft 512 kts 116°
2026-05-07 08:10 19.45006 69.56814 34863 ft 512 kts 116°
2026-05-07 08:10 19.41900 69.63585 34865 ft 511 kts 116°
2026-05-07 08:11 19.38771 69.70395 34864 ft 511 kts 116°
2026-05-07 08:11 19.35667 69.77144 34868 ft 511 kts 116°
2026-05-07 08:12 19.32566 69.83879 34864 ft 511 kts 116°
2026-05-07 08:12 19.29466 69.90614 34864 ft 511 kts 116°
2026-05-07 08:13 19.26350 69.97372 34863 ft 510 kts 116°
2026-05-07 08:13 19.23673 70.03149 34857 ft 510 kts 116°
2026-05-07 08:14 19.20547 70.09869 34851 ft 510 kts 116°
2026-05-07 08:14 19.17419 70.16604 34847 ft 511 kts 116°
2026-05-07 08:15 19.14293 70.23338 34846 ft 511 kts 116°
2026-05-07 08:15 19.11166 70.30070 34847 ft 510 kts 116°
2026-05-07 08:16 19.08038 70.36797 34844 ft 510 kts 116°
2026-05-07 08:16 19.04912 70.43510 34848 ft 510 kts 116°
2026-05-07 08:17 19.01788 70.50209 34847 ft 509 kts 116°
2026-05-07 08:17 18.98658 70.56919 34845 ft 510 kts 116°
2026-05-07 08:18 18.95531 70.63615 34843 ft 509 kts 116°
2026-05-07 08:18 18.92401 70.70312 34847 ft 510 kts 116°
2026-05-07 08:19 18.89272 70.76997 34843 ft 510 kts 116°
2026-05-07 08:19 18.86123 70.83722 34844 ft 510 kts 116°
2026-05-07 08:20 18.82996 70.90396 34848 ft 510 kts 116°
2026-05-07 08:20 18.80111 70.96549 34846 ft 509 kts 116°
2026-05-07 08:21 18.76971 71.03213 34845 ft 509 kts 117°
2026-05-07 08:21 18.73817 71.09875 34851 ft 509 kts 117°
2026-05-07 08:22 18.70659 71.16558 34846 ft 509 kts 116°
2026-05-07 08:22 18.67512 71.23220 34839 ft 510 kts 116°
2026-05-07 08:23 18.64348 71.29916 34838 ft 510 kts 117°
2026-05-07 08:23 18.61190 71.36589 34838 ft 510 kts 117°
2026-05-07 08:24 18.58050 71.43219 34836 ft 510 kts 117°
2026-05-07 08:24 18.54879 71.49908 34831 ft 510 kts 117°
2026-05-07 08:25 18.51707 71.56589 34834 ft 510 kts 117°
2026-05-07 08:25 18.48534 71.63267 34834 ft 510 kts 117°
2026-05-07 08:26 18.43783 71.73251 34829 ft 510 kts 117°
2026-05-07 08:26 18.40609 71.79913 34835 ft 509 kts 117°
2026-05-07 08:27 18.37448 71.86539 34830 ft 509 kts 117°
2026-05-07 08:27 18.34263 71.93212 34831 ft 510 kts 117°
2026-05-07 08:28 18.31094 71.99841 34830 ft 510 kts 117°
2026-05-07 08:28 18.27915 72.06482 34825 ft 510 kts 117°
2026-05-07 08:29 18.24706 72.13177 34821 ft 510 kts 117°
2026-05-07 08:29 18.21525 72.19809 34821 ft 510 kts 117°
2026-05-07 08:30 18.18334 72.26456 34818 ft 510 kts 117°
2026-05-07 08:30 18.15143 72.33096 34818 ft 510 kts 117°
2026-05-07 08:31 18.11953 72.39727 34814 ft 509 kts 117°
2026-05-07 08:31 18.08756 72.46365 34808 ft 510 kts 117°
2026-05-07 08:32 18.05561 72.52991 34809 ft 510 kts 117°
2026-05-07 08:32 18.02177 72.60001 34810 ft 511 kts 117°